{"data":{"norad_id":45096,"epoch":"2026-09-19T21:37:40.766592Z","epoch_age_seconds":66160,"freshness":"FRESH","line1":"1 45096U 20006BE  26262.90116628  .00072702  00000+0  84487-3 0  9994","line2":"2 45096  53.0281 354.4860 0002278  36.0502 324.0664 15.61105812367708","mean_motion":15.61105812,"eccentricity":0.0002278,"inclination_deg":53.0281,"raan_deg":354.486,"arg_perigee_deg":36.0502,"mean_anomaly_deg":324.0664,"bstar":0.00084487,"rev_number":36770,"period_min":92.24230599431,"perigee_km":382.92114217983,"apogee_km":386.0021821303,"semimajor_km":6762.5986621551,"source":"CELESTRAK","updated_at":"2026-09-20T09:00:38.225192Z"}}